Quensel Arpt, British Columbia

3:22 AM PST on December 07, 2016 (GMT -0800)
Quesnel

Weather History for CYQZ - September, 2012

Change the Weather History Date:

Wednesday, September 26, 2012

  Actual Average Record
Temperature  
Mean Temperature 50 °F -  
Max Temperature 68 °F 58 °F 69 °F (1998)
Min Temperature 33 °F 35 °F 30 °F (2013)
Degree Days  
Heating Degree Days 14    
Moisture  
Dew Point 37 °F    
Average Humidity 83    
Maximum Humidity 100    
Minimum Humidity 33    
Precipitation  
Precipitation 0.00 in - - ()
Sea Level Pressure  
Sea Level Pressure 30.17 in    
Wind  
Wind Speed 1 mph ()    
Max Wind Speed 9 mph    
Max Gust Speed -    
Visibility 7.3 miles    
Events Fog    
Averages and records for this station are not official NWS values.
T = Trace of Precipitation, MM = Missing Value Source: Averaged Metar Reports

Daily Weather History Graph

Daily Weather History Graph

Search for Another Location

Airport or City:

Trip Planner

Search our weather history database for the weather conditions in past years. The results will help you decide how hot, cold, wet, or windy it might be!

Date:

Astronomy

Sep. 26, 2012 Rise Set
Actual Time 7:03 AM PDT 6:57 PM PDT
Civil Twilight 6:29 AM PDT 7:31 PM PDT
Nautical Twilight 5:48 AM PDT 8:12 PM PDT
Astronomical Twilight 5:06 AM PDT 8:53 PM PDT
Moon 5:17 PM PDT (9/26) 3:12 AM PDT (9/26)
Length of Visible Light 13h 02m
Length of Day
11h 53m
Waxing Gibbous, 88% of the Moon is Illuminated
Sep 26
Waxing Gibbous
Sep 29
Full
Oct 8
Last Quarter
Oct 15
New
Oct 21
First Quarter

Hourly Weather History & Observations

Time (PDT) Temp. Windchill Dew Point Humidity Pressure Visibility Wind Dir Wind Speed Gust Speed Precip Events Conditions
12:00 AM 37.4 °F - 35.6 °F 93% 30.18 in 9.0 mi Calm Calm - N/A   Clear
12:57 AM 35.6 °F - 35.6 °F 100% 30.18 in 4.0 mi Calm Calm - N/A   Clear
1:00 AM 35.6 °F - 35.6 °F 100% 30.18 in 2.0 mi Calm Calm - N/A   Clear
1:09 AM 37.4 °F - 35.6 °F 93% 30.18 in 3.0 mi Calm Calm - N/A   Clear
1:11 AM 35.6 °F - 35.6 °F 100% 30.18 in 9.0 mi Calm Calm - N/A   Clear
1:16 AM 35.6 °F - 35.6 °F 100% 30.18 in 3.0 mi Calm Calm - N/A   Clear
1:26 AM 35.6 °F - 35.6 °F 100% 30.18 in 9.0 mi Calm Calm - N/A   Clear
2:00 AM 35.6 °F - 35.6 °F 100% 30.18 in 9.0 mi Calm Calm - N/A   Partly Cloudy
3:00 AM 35.6 °F - 35.6 °F 100% 30.18 in 9.0 mi Calm Calm - N/A   Scattered Clouds
3:18 AM 37.4 °F - 35.6 °F 93% 30.18 in 9.0 mi Calm Calm - N/A   Partly Cloudy
4:00 AM 37.4 °F - 35.6 °F 93% 30.18 in 9.0 mi Calm Calm - N/A   Overcast
6:00 AM 37.4 °F - 35.6 °F 93% 30.19 in 9.0 mi Calm Calm - N/A   Partly Cloudy
7:00 AM 35.6 °F - 33.8 °F 93% 30.21 in 9.0 mi Calm Calm - N/A   Scattered Clouds
7:15 AM 33.8 °F - 33.8 °F 100% 30.22 in 9.0 mi Calm Calm - N/A   Mostly Cloudy
7:47 AM 35.6 °F - 33.8 °F 93% 30.22 in 9.0 mi Variable 2.3 mph - N/A   Mostly Cloudy
7:50 AM 33.8 °F - 33.8 °F 100% 30.22 in 3.0 mi Variable 2.3 mph - N/A   Mostly Cloudy
7:51 AM 33.8 °F - 33.8 °F 100% 30.22 in 2.5 mi North 2.3 mph - N/A   Mostly Cloudy
8:00 AM 35.6 °F 32.8 °F 33.8 °F 93% 30.23 in 0.2 mi North 3.5 mph - N/A Fog Fog
8:56 AM 39.2 °F - 39.2 °F 100% 30.21 in 3.0 mi Variable 2.3 mph - N/A   Mostly Cloudy
9:00 AM 39.2 °F - 39.2 °F 100% 30.22 in 5.0 mi Variable 2.3 mph - N/A   Mostly Cloudy
9:06 AM 39.2 °F - 39.2 °F 100% 30.22 in 7.0 mi Calm Calm - N/A   Mostly Cloudy
9:07 AM 39.2 °F - 39.2 °F 100% 30.22 in 8.0 mi Calm Calm - N/A   Scattered Clouds
10:00 AM 44.6 °F - 39.2 °F 81% 30.22 in 9.0 mi Variable 2.3 mph - N/A   Clear
11:00 AM 48.2 °F - 41.0 °F 76% 30.20 in 9.0 mi Variable 2.3 mph - N/A   Clear
12:00 PM 53.6 °F - 41.0 °F 62% 30.17 in 9.0 mi Calm Calm - N/A   Clear
1:00 PM 59.0 °F - 41.0 °F 51% 30.15 in 9.0 mi Variable 3.5 mph - N/A   Clear
2:00 PM 62.6 °F - 39.2 °F 42% 30.12 in 9.0 mi South 5.8 mph - N/A   Clear
3:00 PM 66.2 °F - 39.2 °F 37% 30.09 in 9.0 mi South 5.8 mph - N/A   Clear
4:00 PM 68.0 °F - 39.2 °F 35% 30.07 in 9.0 mi SSE 4.6 mph - N/A   Clear
5:00 PM 68.0 °F - 39.2 °F 35% 30.07 in 9.0 mi South 6.9 mph - N/A   Clear
6:00 PM 68.0 °F - 37.4 °F 33% 30.06 in 9.0 mi SSE 9.2 mph - N/A   Clear
7:00 PM 57.2 °F - 42.8 °F 59% 30.06 in 9.0 mi Calm Calm - N/A   Clear
8:00 PM 51.8 °F - 42.8 °F 71% 30.07 in 9.0 mi Calm Calm - N/A   Clear
9:00 PM 46.4 °F - 41.0 °F 81% 30.08 in 9.0 mi Calm Calm - N/A   Clear
10:00 PM 42.8 °F - 41.0 °F 93% 30.08 in 9.0 mi Calm Calm - N/A   Clear